Weather History for KLLJ - September, 2012

Change the Weather History Date:

Tuesday, September 4, 2012

  Actual Average Record
Temperature  
Mean Temperature 61 °F 60 °F  
Max Temperature 81 °F 78 °F 93 °F (1988)
Min Temperature 40 °F 42 °F 29 °F (1921)
Degree Days  
Heating Degree Days 4 5  
Month to date heating degree days 14 20  
Since 1 July heating degree days 23 93  
Cooling Degree Days 0 1  
Month to date cooling degree days 2 4  
Year to date cooling degree days 329 246  
Growing Degree Days 12 (Base 50)    
Moisture  
Dew Point 21 °F    
Average Humidity 28    
Maximum Humidity 45    
Minimum Humidity 10    
Precipitation  
Precipitation 0.00 in 0.03 in 0.35 in (1940)
Month to date precipitation T 0.10  
Year to date precipitation 3.65 7.49  
Sea Level Pressure  
Sea Level Pressure 30.01 in    
Wind  
Wind Speed 2 mph (NW)    
Max Wind Speed 12 mph    
Max Gust Speed 17 mph    
Visibility 8 miles    
Events      
T = Trace of Precipitation, MM = Missing Value Source: NWS Daily Summary

Daily Weather History Graph

Daily Weather History Graph

Search for Another Location

Airport or City:

Trip Planner

Search our weather history database for the weather conditions in past years. The results will help you decide how hot, cold, wet, or windy it might be!

Date:

Astronomy

Sep. 04, 2012 Rise Set
Actual Time 7:03 AM MDT 8:06 PM MDT
Civil Twilight 6:33 AM MDT 8:36 PM MDT
Nautical Twilight 5:58 AM MDT 9:12 PM MDT
Astronomical Twilight 5:20 AM MDT 9:49 PM MDT
Moon 9:48 PM MDT 11:27 AM MDT
Length of Visible Light 14h 02m
Length of Day
13h 03m
Waning Gibbous, 83% of the Moon is Illuminated
Sep 4
Waning Gibbous
Sep 8
Last Quarter
Sep 15
New
Sep 22
First Quarter
Sep 29
Full

Hourly Weather History & Observations

Time (MDT) Temp. Dew Point Humidity Pressure Visibility Wind Dir Wind Speed Gust Speed Precip Events Conditions
12:55 AM 50.0 °F 19.0 °F 29% 29.99 in 6.0 mi WSW 4.6 mph - N/A   Haze
1:55 AM 48.0 °F 17.1 °F 29% 29.98 in 7.0 mi Calm Calm - N/A   Clear
2:55 AM 48.9 °F 19.9 °F 32% 29.97 in 8.0 mi Calm Calm - N/A   Clear
3:55 AM 46.0 °F 15.1 °F 29% 29.98 in 9.0 mi Calm Calm - N/A   Clear
4:55 AM 44.1 °F 15.1 °F 31% 30.01 in 8.0 mi Calm Calm - N/A   Clear
5:55 AM 45.0 °F 18.0 °F 34% 30.01 in 8.0 mi Calm Calm - N/A   Clear
6:55 AM 43.0 °F 17.1 °F 35% 30.04 in 8.0 mi Calm Calm - N/A   Clear
7:55 AM 43.0 °F 23.0 °F 45% 30.07 in 7.0 mi Calm Calm - N/A   Clear
8:55 AM 50.0 °F 19.9 °F 31% 30.06 in 5.0 mi Calm Calm - N/A   Haze
9:55 AM 54.0 °F 23.0 °F 30% 30.06 in 5.0 mi WNW 3.5 mph - N/A   Haze
10:55 AM 61.0 °F 23.0 °F 23% 30.05 in 5.0 mi Calm Calm - N/A   Haze
11:55 AM 66.0 °F 25.0 °F 21% 30.04 in 4.0 mi Calm Calm - N/A   Haze
12:55 PM 71.1 °F 24.1 °F 17% 30.01 in 4.0 mi Calm Calm - N/A   Haze
1:55 PM 75.0 °F 23.0 °F 14% 29.99 in 8.0 mi ESE 4.6 mph - N/A   Clear
2:55 PM 78.1 °F 21.9 °F 12% 29.96 in 10.0 mi East 6.9 mph - N/A   Clear
4:55 PM 79.0 °F 21.0 °F 12% 29.95 in 10.0 mi Calm Calm - N/A   Clear
5:55 PM 80.1 °F 19.9 °F 11% 29.94 in 10.0 mi SE 3.5 mph - N/A   Clear
6:55 PM 79.0 °F 21.9 °F 12% 29.95 in 10.0 mi NW 3.5 mph - N/A   Clear
7:55 PM 70.0 °F 21.9 °F 16% 29.98 in 10.0 mi WNW 4.6 mph - N/A   Clear
9:55 PM 61.0 °F 28.9 °F 30% 30.02 in 7.0 mi NNW 6.9 mph - N/A   Clear
10:55 PM 59.0 °F 25.0 °F 27% 30.03 in 9.0 mi NNW 4.6 mph - N/A   Clear
11:55 PM 54.0 °F 28.9 °F 38% 30.05 in 9.0 mi Variable 3.5 mph - N/A   Clear